Location: Whitehorse
(60.7170°N, 135.0500°W)
Time: 05:48:17
(UTC-08:00)

Envisat - Pass Details

Date: 25 October 2019
Orbit: 764 x 766 km, 98.1° (Epoch: 20 November)

Event Time Altitude Azimuth Distance (km) Brightness Sun altitude
Rises 19:09:01 0° 150° (SSE) 3,228 6.1 -6.5°
Reaches altitude 10° 19:11:20 10° 148° (SSE) 2,305 5.3 -6.7°
Maximum altitude 19:16:22 67° 66° (ENE) 833 3.0 -7.3°
Drops below altitude 10° 19:21:26 10° 345° (NNW) 2,318 5.6 -8.0°
Sets 19:23:45 0° 343° (NNW) 3,248 6.3 -8.2°
